Location: Sunny Point
(33.0946°N, 85.0574°W)
Time: 02:32:01
(UTC+00:00)

Hubble Space Telescope - Visible Passes

Search period start: 22 May 2024 00:00
Search period end: 01 June 2024 00:00
Orbit: 512 x 515 km, 28.5° (Epoch: 21 May)

Date Brightness Start Highest point End Pass type
(mag) Time Alt. Az. Time Alt. Az. Time Alt. Az.
25 May 3.2 02:42:37 10° SW 02:42:47 11° SW 02:42:47 11° SW visible
26 May 2.1 02:23:43 10° SW 02:25:51 23° SSW 02:25:51 23° SSW visible
27 May 1.5 02:04:51 10° SW 02:08:23 31° SSE 02:08:42 30° SSE visible
28 May 1.4 01:45:58 10° SW 01:49:35 33° S 01:51:21 22° ESE visible
28 May 3.5 03:26:08 10° WSW 03:26:11 10° WSW 03:26:11 10° WSW visible
29 May 1.4 01:27:05 10° WSW 01:30:45 35° S 01:33:49 13° ESE visible
29 May 2.7 03:07:19 10° WSW 03:08:39 19° WSW 03:08:39 19° WSW visible
30 May 1.4 01:08:12 10° WSW 01:11:54 37° S 01:15:36 10° ESE visible
30 May 1.9 02:48:30 10° WSW 02:51:00 31° SW 02:51:00 31° SW visible
31 May 1.3 02:29:40 10° WSW 02:33:13 38° SSW 02:33:13 38° SSW visible
